Hourly Data Report for May 07, 2021

WIARTON A
ONTARIO
Current Station Operator: NAVCAN

44°44'39.000" N
81°06'31.000" W
221.90 m
6119499
71633
YVV

Download Data

Hourly Data (May 2021)
Hourly Data Report for May 7, 2021
TIME
LST
Temp Definition
°C
Dew Point Definition
°C
Rel Hum Definition
%
Precip. Amount Definition
mm

Wind Dir Definition
10's deg

Wind Spd Definition
km/h
Visibility Definition
km
Stn Press Definition
kPa
Hmdx Definition


Wind Chill Definition


Weather Definition


00:00 2.0 1.1 94   17 6 24.1 98.94     LegendNANA
01:00 3.5 2.4 92   19 9 24.1 98.88     Mostly Cloudy
02:00 4.0 2.5 90   36 1 24.1 98.82     LegendNANA
03:00 3.7 2.4 91   23 7 24.1 98.81     LegendNANA
04:00 2.8 2.1 95   19 9 24.1 98.81     Mostly Cloudy
05:00 3.5 2.2 91   23 6 24.1 98.82     LegendNANA
06:00 3.8 2.4 91   20 3 24.1 98.85     LegendNANA
07:00 4.7 3.2 90   25 4 24.1 98.87     Mostly Cloudy
08:00 6.0 3.7 85   27 4 24.1 98.87     LegendNANA
09:00 7.0 3.0 76   18 4 24.1 98.83     LegendNANA
10:00 8.8 2.7 65   26 9 24.1 98.80     Mostly Cloudy
11:00 9.3 1.2 57   28 13 24.1 98.75     LegendNANA
12:00 9.8 0.2 51   29 13 24.1 98.71     LegendNANA
13:00 8.8 0.1 54   36 5 24.1 98.69     Mostly Cloudy
14:00 9.7 1.5 57   33 4 24.1 98.66     LegendNANA
15:00 9.5 2.1 60   35 7 24.1 98.65     LegendNANA
16:00 7.6 2.4 70   35 6 24.1 98.67     Mostly Cloudy
17:00 8.3 1.3 61   4 9 24.1 98.66     LegendNANA
18:00 6.4 -0.1 63   4 15 24.1 98.65     LegendNANA
19:00 5.9 -0.5 63   1 8 24.1 98.65     Cloudy
20:00 5.6 -1.0 62   4 9 19.3 98.66     Rain Showers
21:00 5.2 0.1 69   4 9 19.3 98.68     Rain Showers
22:00 5.0 1.0 75   4 8 19.3 98.67     Rain Showers
23:00 5.2 1.0 74   35 7 16.1 98.64     Rain Showers

Notes on Data Quality.

Legend

  • E = Estimated
  • M = Missing
  • NA = Not Available*
  • [empty] = Indicates an unobserved value
Date modified: